Wind_Speed
16 17 19 20 19 18 18 18 17 17 19 20 21 22 22 22 19 16 20 24 19 17 16 15 14 11 12 13 11 13 6 10 10 10 12 8 13 11 10 7 6 5 7 7 6
18 19 19 19 21 23 23 22 21 20 19 18 20 21 21 21 22 19 21 22 23 20 17 16 19 15 14 15 12 17 10 5 10 9 16 4 7 10 12 6 11 8 8 8 8
23 23 24 24 24 23 24 26 26 24 22 21 20 19 20 21 21 22 22 23 23 22 21 19 20 17 16 18 17 11 12 13 9 14 16 8 6 10 11 8 8 6 8 6 7
26 27 28 29 28 28 27 27 27 28 27 24 23 20 18 19 19 24 24 25 24 23 21 21 21 21 21 22 13 15 14 11 11 8 12 1 7 18 10 6 6 7 9 6 8
34 35 34 33 34 34 34 32 30 29 29 29 27 23 20 17 25 21 26 26 27 25 24 24 22 21 22 27 28 18 14 12 6 3 13 8 6 11 6 6 7 9 7 7 9
38 35 37 39 39 39 39 37 37 34 32 30 31 28 23 23 23 21 26 29 27 26 26 25 22 23 26 26 28 21 15 10 9 5 8 5 8 7 5 8 8 8 8 8 7
38 38 38 40 41 42 43 43 41 39 38 34 32 31 28 32 24 20 25 31 30 29 27 26 29 26 27 28 32 26 17 15 16 12 11 7 5 4 4 4 5 8 9 8 8
38 40 41 42 42 42 44 45 46 43 42 40 36 32 29 35 27 24 27 30 32 33 31 33 33 31 28 28 29 26 23 17 14 16 9 14 8 5 4 2 3 6 10 6 9
40 42 43 44 43 41 41 43 45 46 45 44 42 37 33 35 36 32 29 28 31 34 37 36 35 32 30 32 29 22 22 21 22 13 9 8 5 4 5 3 2 7 8 8 5
36 39 38 36 37 37 37 36 41 42 45 47 45 42 38 40 36 33 31 30 28 35 40 41 38 35 32 32 24 23 21 25 21 17 9 1 7 10 5 5 2 4 6 7 3
24 23 25 27 27 26 28 30 34 34 39 42 44 44 42 45 40 36 36 34 32 36 39 41 40 37 29 28 33 27 27 27 16 10 11 7 6 8 7 6 1 4 4 4 7
23 22 23 22 23 22 20 20 22 27 25 35 38 43 42 47 44 38 40 38 36 30 36 42 45 36 34 31 32 31 31 28 23 21 15 10 10 11 10 9 9 8 7 5 7
20 21 24 22 20 14 10 12 14 16 20 23 30 34 35 46 42 43 42 43 39 35 36 42 34 38 38 34 34 37 33 31 28 24 25 22 16 14 15 12 13 11 12 8 7
24 25 23 23 19 17 16 17 16 18 16 12 16 21 27 36 43 42 45 44 44 38 35 37 35 42 41 37 38 38 36 31 32 27 23 23 23 20 23 21 14 13 14 12 9
24 24 25 21 25 23 22 21 20 15 14 5 7 12 15 24 38 43 46 47 44 41 42 30 39 43 47 41 38 36 42 32 31 17 20 19 21 20 23 24 11 17 15 14 10
18 16 18 19 23 25 26 25 24 22 16 18 16 10 16 20 29 41 45 48 47 46 45 34 38 45 45 42 40 41 44 37 33 26 26 20 21 23 17 19 14 13 15 15 15
17 17 17 24 26 27 24 25 27 23 19 22 21 17 12 20 28 41 47 49 49 49 48 41 43 47 48 49 48 45 48 44 39 37 29 21 26 8 13 12 11 19 12 13 15
16 18 20 24 28 29 28 21 22 24 24 24 27 25 25 21 31 36 45 51 49 48 48 48 46 43 46 51 50 48 51 52 47 41 32 23 18 10 12 16 8 11 18 17 13
21 19 20 25 28 30 30 25 22 23 20 22 30 33 33 22 22 33 35 43 50 47 48 50 47 40 41 47 51 51 57 51 49 40 34 28 16 15 8 6 1 12 10 10 16
20 18 19 26 26 27 27 23 24 20 21 22 25 35 40 30 22 28 30 36 47 51 58 54 53 47 39 46 52 55 53 54 55 48 40 29 22 17 11 3 4 6 3 5 5
23 22 24 25 27 27 27 25 27 26 25 25 28 32 37 39 30 28 35 36 38 41 58 59 56 47 46 51 52 56 57 57 55 52 46 32 26 18 13 10 6 13 4 8 12
21 23 25 29 35 32 30 27 26 29 33 37 37 39 39 41 39 38 33 47 40 39 54 60 60 53 51 46 53 56 57 54 57 54 49 40 29 23 16 14 19 7 2 1 3
19 23 28 33 35 32 28 30 32 37 42 46 45 41 42 42 48 47 44 48 48 44 44 59 61 54 50 49 56 58 60 58 52 52 50 43 32 29 29 18 22 13 14 12 13
21 27 33 35 34 32 32 37 39 43 44 47 48 46 46 45 50 56 53 50 51 54 47 53 61 59 58 54 60 64 61 60 56 55 50 45 41 29 32 28 26 21 29 24 17
25 30 35 36 39 37 40 41 36 36 39 42 41 43 46 47 53 61 61 57 58 55 54 53 55 63 61 58 58 61 61 60 60 57 53 44 43 25 31 20 23 25 26 21 18
29 33 34 35 37 41 43 36 36 35 34 29 29 33 35 41 50 58 62 61 62 58 57 61 53 62 62 62 59 56 57 56 59 56 51 48 44 36 26 12 23 19 27 26 27
32 35 35 37 41 42 39 34 28 22 23 26 28 31 38 37 42 52 61 68 64 60 57 59 58 61 64 62 57 52 50 47 52 54 49 55 44 38 23 25 23 27 36 33 30
Wind_Direction
295 290 285 282 278 276 275 275 272 267 262 258 252 251 248 247 243 226 224 227 228 225 224 210 222 195 185 165 147 189 187 124 102 71 39 48 62 61 52 70 63 44 49 64 86
298 294 291 288 283 277 271 268 268 268 266 261 257 251 249 245 243 231 225 223 226 217 222 213 218 205 187 161 178 218 220 116 84 58 9 11 41 48 73 39 58 50 60 78 110
294 291 289 286 281 278 275 270 264 262 262 262 259 254 247 244 240 233 224 222 219 218 218 219 218 206 207 175 164 192 138 86 44 21 354 339 56 54 51 46 43 62 72 86 113
293 288 283 281 281 277 273 270 266 261 256 255 257 256 250 243 241 231 223 220 217 215 212 218 222 208 204 189 194 154 158 106 50 14 329 341 95 95 84 58 48 54 75 88 108
292 284 282 278 274 273 272 267 264 261 257 252 250 250 250 245 239 226 226 219 218 213 212 211 219 214 205 205 191 173 165 134 111 6 303 250 116 100 102 59 37 42 62 85 96
297 285 277 275 272 269 266 266 262 258 255 253 249 243 241 241 240 226 227 222 217 215 212 214 214 212 204 209 202 212 214 155 123 265 252 251 126 80 49 38 34 36 53 74 102
292 288 284 275 270 267 264 261 259 257 252 249 247 245 237 239 236 228 225 221 217 213 207 206 213 216 209 206 203 205 221 181 160 198 210 226 204 128 90 355 29 30 41 86 110
300 294 288 279 273 266 263 259 256 253 251 248 244 241 237 238 232 228 228 222 217 208 206 206 214 209 205 201 214 206 223 194 195 190 204 206 174 149 136 245 31 54 39 58 118
303 296 288 281 276 272 266 263 256 252 249 247 244 239 234 237 231 222 224 228 214 212 208 211 216 214 206 196 205 205 221 190 193 191 190 213 186 159 166 162 2 41 46 39 100
307 297 294 288 282 278 273 268 262 256 252 246 243 239 233 236 235 226 224 228 220 214 212 211 216 213 213 202 203 200 202 187 193 188 222 190 213 148 164 160 18 39 39 47 86
332 336 318 308 300 292 285 277 267 260 256 249 244 239 233 231 228 224 221 227 222 217 215 213 214 218 212 210 193 185 188 194 172 222 213 228 226 187 190 209 90 243 102 65 67
327 334 334 334 312 302 295 279 274 270 261 259 247 237 235 230 226 224 221 219 227 220 216 213 212 207 211 207 200 187 193 197 187 189 210 210 241 262 193 209 201 196 145 104 93
314 322 330 326 332 330 307 298 296 295 281 250 259 245 231 231 222 220 220 219 218 221 218 217 206 206 210 205 196 194 193 192 198 199 209 222 232 270 241 213 220 192 149 130 99
304 310 322 320 317 310 301 304 303 300 319 289 256 253 245 228 221 218 218 219 217 214 222 219 202 204 206 205 197 191 187 192 200 210 209 219 226 259 263 234 211 216 165 147 126
302 303 303 306 306 303 297 292 292 300 312 282 184 222 223 229 219 213 216 214 216 215 219 209 206 205 204 200 198 184 187 191 206 212 212 221 244 249 251 229 185 221 184 152 131
301 301 306 313 315 298 290 287 282 280 286 243 252 225 192 206 208 211 214 212 211 213 217 204 208 205 205 199 196 188 191 192 199 207 217 221 243 246 232 223 184 206 210 174 144
300 299 303 308 320 321 307 287 283 275 266 232 252 254 223 187 203 202 206 209 210 212 213 207 206 208 198 197 199 191 191 197 203 209 215 222 241 202 218 188 188 190 186 201 169
298 307 308 312 314 318 314 300 281 268 253 236 231 235 235 216 193 202 204 203 204 211 211 208 212 208 204 201 196 193 196 197 204 210 214 222 203 141 158 207 235 212 192 205 207
304 311 313 313 320 322 318 306 279 266 251 244 224 221 243 244 228 204 199 201 199 205 210 210 208 209 208 206 198 195 197 198 205 210 213 214 202 166 220 148 337 240 181 226 232
316 310 313 317 322 320 311 294 273 260 247 247 228 229 232 248 232 226 202 197 198 203 203 204 206 204 198 205 201 199 195 201 205 206 210 200 206 203 202 128 332 103 163 326 274
317 310 315 322 317 314 308 291 275 262 256 251 250 233 235 237 238 221 218 208 196 195 203 203 206 201 200 200 197 199 199 203 207 211 213 203 201 216 210 192 248 257 27 5 183
317 318 321 322 318 316 312 299 287 268 257 256 252 244 238 232 234 228 219 215 204 199 202 204 206 197 204 202 195 199 198 204 208 209 214 211 199 208 214 239 234 197 287 336 194
317 324 322 321 317 315 309 296 285 272 261 255 253 242 237 231 225 223 221 210 212 204 208 205 205 196 199 199 195 200 199 201 205 208 209 209 193 210 207 221 236 228 193 192 191
325 325 321 320 320 315 307 300 294 284 274 265 258 249 236 226 221 218 214 209 203 206 211 210 206 195 193 193 197 198 199 202 204 207 207 205 201 209 210 210 222 237 208 184 182
327 326 324 323 322 316 307 304 294 280 269 260 257 252 246 236 221 215 213 206 203 205 209 211 211 198 195 196 198 199 199 203 206 206 207 202 201 198 218 228 222 202 190 181 187
332 330 326 324 322 315 312 303 288 278 272 270 269 257 246 240 228 216 207 203 202 202 207 212 211 201 195 197 199 198 197 202 208 208 201 199 204 199 214 268 218 221 201 193 200
334 330 328 330 327 321 317 305 290 281 270 282 276 270 259 241 228 215 209 198 196 201 202 210 208 204 194 197 198 199 199 201 205 206 197 199 200 206 214 222 240 240 208 210 206
Height
5878 5877 5876 5875 5875 5874 5874 5873 5873 5873 5874 5875 5876 5878 5880 5882 5885 5888 5890 5891 5894 5896 5897 5898 5900 5901 5903 5907 5907 5908 5907 5902 5903 5902 5904 5907 5911 5913 5911 5912 5912 5911 5910 5909 5909
5875 5873 5872 5871 5870 5869 5869 5868 5868 5868 5869 5869 5870 5872 5874 5876 5879 5883 5885 5887 5889 5893 5895 5897 5898 5901 5902 5905 5907 5907 5906 5903 5903 5904 5906 5908 5910 5915 5913 5911 5911 5911 5911 5911 5911
5870 5868 5867 5865 5865 5864 5864 5863 5863 5863 5863 5864 5865 5867 5869 5872 5875 5877 5880 5883 5886 5889 5892 5895 5896 5900 5902 5906 5906 5906 5901 5902 5903 5904 5907 5908 5910 5916 5911 5913 5913 5912 5912 5911 5913
5863 5861 5860 5858 5857 5857 5857 5857 5857 5857 5858 5859 5860 5862 5864 5867 5870 5870 5874 5877 5881 5884 5889 5892 5894 5898 5900 5906 5903 5905 5902 5901 5903 5905 5910 5911 5914 5916 5915 5916 5916 5914 5912 5912 5913
5855 5853 5851 5849 5849 5848 5848 5849 5850 5850 5851 5852 5854 5856 5859 5862 5860 5866 5868 5872 5876 5880 5884 5888 5891 5895 5899 5901 5904 5905 5903 5900 5901 5904 5910 5909 5913 5915 5917 5915 5916 5914 5915 5913 5912
5845 5842 5840 5839 5838 5837 5837 5838 5840 5842 5843 5845 5847 5850 5854 5855 5857 5861 5863 5867 5871 5876 5879 5884 5889 5891 5893 5897 5901 5903 5902 5900 5899 5907 5909 5910 5912 5914 5916 5915 5916 5916 5916 5914 5914
5835 5832 5829 5827 5825 5825 5824 5826 5828 5831 5833 5837 5839 5842 5847 5845 5851 5856 5857 5859 5866 5871 5875 5879 5881 5886 5889 5894 5896 5899 5903 5901 5900 5907 5909 5909 5912 5916 5915 5915 5916 5918 5917 5917 5917
5824 5820 5817 5814 5813 5812 5811 5812 5814 5818 5821 5825 5830 5835 5840 5839 5846 5849 5849 5852 5858 5865 5869 5872 5874 5880 5885 5891 5894 5899 5903 5903 5903 5905 5908 5911 5912 5916 5917 5918 5918 5919 5917 5918 5920
5812 5807 5804 5802 5800 5799 5800 5800 5801 5804 5808 5812 5819 5825 5830 5832 5835 5839 5843 5846 5851 5856 5861 5865 5869 5875 5880 5886 5892 5897 5901 5902 5902 5901 5904 5907 5911 5914 5916 5917 5918 5918 5917 5918 5920
5802 5797 5793 5791 5788 5788 5788 5788 5789 5792 5795 5799 5806 5816 5821 5820 5828 5835 5838 5840 5845 5849 5853 5858 5864 5870 5876 5882 5891 5895 5899 5899 5902 5904 5904 5907 5909 5911 5912 5914 5916 5917 5918 5918 5920
5795 5791 5786 5783 5780 5778 5779 5779 5780 5783 5782 5786 5793 5800 5808 5810 5817 5824 5830 5834 5836 5841 5846 5853 5858 5864 5874 5880 5884 5891 5893 5896 5900 5903 5905 5906 5905 5908 5909 5912 5914 5916 5918 5919 5920
5791 5787 5783 5778 5774 5773 5772 5770 5771 5772 5777 5774 5779 5788 5794 5798 5809 5816 5820 5826 5830 5838 5840 5844 5850 5863 5867 5874 5881 5887 5891 5894 5893 5896 5901 5903 5904 5905 5908 5910 5911 5913 5916 5918 5918
5787 5783 5780 5775 5771 5769 5767 5766 5766 5766 5768 5771 5769 5775 5783 5787 5799 5805 5810 5816 5821 5828 5832 5836 5853 5857 5861 5868 5874 5881 5886 5890 5893 5893 5897 5900 5902 5902 5906 5910 5911 5911 5912 5915 5918
5781 5778 5775 5770 5769 5766 5764 5763 5762 5762 5763 5763 5764 5766 5770 5776 5787 5792 5801 5807 5813 5820 5825 5830 5843 5846 5854 5861 5868 5875 5884 5886 5888 5889 5896 5897 5899 5901 5902 5906 5912 5913 5910 5912 5915
5774 5772 5769 5767 5764 5761 5760 5758 5758 5759 5759 5757 5755 5756 5761 5767 5775 5782 5787 5795 5805 5813 5815 5831 5832 5838 5844 5855 5863 5875 5876 5881 5884 5887 5889 5891 5894 5898 5901 5903 5911 5912 5911 5910 5913
5768 5766 5763 5761 5758 5755 5752 5752 5753 5755 5755 5749 5750 5752 5753 5758 5765 5770 5778 5787 5795 5803 5806 5821 5824 5829 5840 5851 5858 5864 5870 5874 5877 5880 5881 5887 5891 5893 5898 5908 5909 5911 5910 5908 5910
5761 5760 5758 5754 5751 5747 5745 5744 5744 5745 5747 5747 5746 5749 5752 5750 5754 5757 5764 5775 5785 5793 5800 5810 5813 5819 5827 5838 5847 5854 5862 5866 5870 5872 5878 5883 5886 5891 5897 5902 5902 5905 5907 5908 5909
5756 5754 5752 5748 5745 5741 5738 5738 5736 5735 5736 5739 5741 5742 5742 5746 5747 5749 5755 5764 5774 5783 5791 5798 5805 5813 5824 5830 5840 5848 5856 5858 5863 5869 5877 5880 5881 5888 5892 5897 5897 5898 5906 5906 5910
5750 5748 5746 5742 5737 5733 5730 5727 5727 5726 5729 5732 5736 5736 5736 5744 5749 5749 5754 5759 5761 5770 5780 5789 5798 5809 5816 5826 5833 5841 5843 5858 5861 5865 5869 5875 5880 5882 5886 5892 5895 5899 5902 5908 5911
5744 5742 5740 5736 5731 5727 5724 5720 5717 5717 5720 5724 5727 5730 5731 5736 5745 5748 5749 5751 5753 5755 5763 5775 5784 5794 5808 5814 5822 5828 5844 5847 5850 5857 5862 5869 5874 5878 5883 5888 5893 5898 5899 5903 5904
5738 5735 5732 5728 5725 5721 5717 5712 5710 5711 5713 5716 5719 5722 5726 5730 5736 5742 5745 5747 5747 5747 5756 5765 5774 5791 5795 5800 5814 5824 5830 5837 5845 5852 5857 5867 5871 5875 5878 5882 5889 5892 5895 5898 5897
5731 5727 5723 5719 5715 5711 5707 5704 5704 5703 5704 5704 5706 5708 5713 5719 5724 5730 5737 5736 5741 5747 5749 5755 5766 5778 5787 5799 5809 5814 5822 5832 5836 5844 5853 5862 5867 5871 5873 5877 5882 5886 5889 5892 5899
5724 5720 5716 5711 5706 5701 5698 5693 5691 5688 5687 5686 5687 5691 5695 5702 5708 5715 5723 5731 5737 5741 5742 5747 5757 5772 5783 5791 5798 5801 5812 5818 5829 5839 5846 5856 5867 5867 5873 5877 5880 5884 5888 5893 5897
5719 5713 5707 5702 5697 5691 5686 5681 5675 5670 5669 5668 5669 5672 5676 5681 5688 5698 5708 5717 5724 5731 5736 5741 5747 5761 5771 5776 5782 5791 5802 5812 5821 5829 5840 5849 5861 5863 5868 5873 5878 5883 5887 5890 5896
5711 5705 5699 5692 5684 5679 5672 5666 5659 5653 5648 5648 5651 5653 5655 5663 5670 5678 5689 5703 5713 5718 5725 5732 5740 5754 5762 5768 5774 5785 5796 5805 5812 5822 5833 5847 5854 5860 5863 5869 5876 5878 5884 5886 5890
5704 5698 5690 5684 5675 5667 5658 5651 5644 5640 5638 5637 5638 5639 5641 5646 5651 5661 5674 5689 5698 5708 5715 5723 5736 5747 5756 5762 5771 5781 5791 5799 5806 5817 5828 5841 5848 5855 5860 5864 5867 5871 5878 5881 5883
5698 5691 5682 5674 5664 5654 5645 5637 5633 5633 5631 5630 5627 5626 5626 5633 5639 5650 5661 5673 5688 5696 5706 5713 5725 5740 5751 5761 5771 5783 5790 5795 5801 5812 5821 5832 5844 5850 5855 5858 5864 5866 5870 5874 5876